SL-4 R/B (47547 NORAD) Tracking and Keplerian Element Data

This shows tracking and keplerian element data for the satellite.

Feedback or suggestion? Click here.




ElementValue
Catalog47547
NameSL-4 R/B
Epoch Orbit6007
Epoch Day59.68337224
Epoch Year2022
RAAN317.924
Inclination67.1021
Eccentricity0.0045061
Argument of Perigee76.7804
Mean Anonmoly283.8418
Mean Motion16.28602106
Decay Rate0.02910799
L11 47547U 21008B 22059.68337224 .02910799 60961-5 53971-3 0 9993
L22 47547 67.1021 317.9240 0045061 76.7804 283.8418 16.28602106 60079



Live tracking and technical data element details for SL-4 R/B (NORAD 47547). SL-4 R/B can be tracked NOW for your location showing map with azimuth and elevation plus other details from your city location.







IsCatalogInMostPopularTable: catalog: 47547, numindb: 124
Update: records affected: 1



GetName: 47547 SL-4 R/B

Hit Count: updated at: Sun, 14 Apr 2024 22:38:36 GMT